User: anonymous   Login
Location: Newark
(41.9000°N, 12.4833°E)
Time: 07:46:37
(UTC+00:00)
Language:

EO-79 - Orbit

View from above orbital plane
View from above orbital plane
View from above satellite
View from above satellite

Ground track
Ground track

The orbit data is extracted from the following two-line orbital elements,

1 40025U 14033R   20294.83622733 +.00000324 +00000-0 +40217-4 0  9990
2 40025 097.9164 219.1330 0011031 244.5982 115.4093 14.89211506344267
Epoch (UTC): 20 October 2020 20:04:10
Eccentricity: 0.0011031
inclination: 97.9164°
perigee height: 593 km
apogee height: 608 km
right ascension of ascending node: 219.1330°
argument of perigee: 244.5982°
revolutions per day: 14.89211506
mean anomaly at epoch: 115.4093°
orbit number at epoch: 34426

The dashed part of the orbit path shows where the satellite is in the earth's shadow,  

DLR